Content
SEND FEEDBACK

Daily
Averages
Monthly
Summary
United States of America

WICHITA, KANSAS


Home > North America > United States > Kansas
Elevation: 1321 feet     Latitude: 37 39N     Longitude: 097 26W

WEATHER
 
SELECT A DAY
Number of Records: 192,005;   Date Range: 1/1/95 - 8/12/14
 
SHARE

PRINT THIS DATA

[ ← Previous Day ]
WEATHER ALMANAC - MARCH 17, 2013
[ Next Day → ]
[ °C ]   °F
Weather ElementAverageHighLow
Temperature38.7 °F43 °F (1:53 pm)35.6 °F (4:53 am)
Dewpoint32.5 °F36 °F (4:53 pm)28.4 °F (1:48 am)
Humidity78.9 %93 % (8:53 pm)70 % (1:48 am)
Barometer29.87 in30.00 in (12:53 am)29.73 in (6:53 pm)
Wind Speed11.6 mph20.7 mph (12:53 am)
Wind Gust28.8 mph (12:53 am)
Weather ElementAverage
Visibility9.6 mi
Wind DirectionENE (70 °)

Weather ElementTotal
Precipitation0.02 in
Heating Degree Days25.7 (Base 65)
Averaged from 27 records on March 17, 2013
WEATHER CONDITIONS BREAKOUT
WIND DIRECTION BREAKOUT
WEATHER BY HOUR - MARCH 17, 2013
[ °C ]   °F
Local TimeTemperatureDewpointHumidityBarometerVisibilityWind DirectionWind SpeedGust SpeedPrecipitationEventsConditions
12:53 AM37.0 °F28.9 °F73 %30.00 in10.0 miNE (50°)20.7 mph28.8 mphOvercast
1:48 AM37.4 °F28.4 °F70 %29.98 in10.0 miNNE (30°)16.1 mph0.00 inRainLight Rain
1:53 AM36.0 °F28.9 °F76 %30.00 in10.0 miNNE (30°)17.3 mph0.00 inRainLight Rain
2:53 AM36.0 °F30.9 °F82 %29.98 in10.0 miNNE (30°)15.0 mph0.02 inRainLight Rain
3:53 AM36.0 °F30.0 °F79 %29.95 in10.0 miNE (50°)15.0 mph0.00 inOvercast
4:53 AM35.6 °F28.4 °F75 %29.94 in10.0 miNE (50°)16.1 mphOvercast
5:53 AM36.0 °F28.9 °F76 %29.95 in10.0 miENE (60°)13.8 mphOvercast
6:53 AM36.0 °F28.9 °F76 %29.95 in10.0 miENE (60°)11.5 mphOvercast
7:53 AM37.0 °F28.9 °F73 %29.96 in10.0 miNE (40°)8.1 mphOvercast
8:53 AM37.0 °F30.0 °F76 %29.95 in10.0 miNE (40°)12.7 mphMostly Cloudy
9:12 AM37.4 °F30.2 °F75 %29.92 in10.0 miNE (50°)12.7 mphMostly Cloudy
9:53 AM39.0 °F30.9 °F73 %29.96 in10.0 miNE (50°)12.7 mphOvercast
10:53 AM41.0 °F32.0 °F70 %29.93 in10.0 miNE (50°)12.7 mphOvercast
11:53 AM42.1 °F33.1 °F70 %29.90 in10.0 miNE (50°)12.7 mph20.7 mphOvercast
12:53 PM42.1 °F34.0 °F73 %29.89 in10.0 miENE (70°)10.4 mphOvercast
1:53 PM43.0 °F34.0 °F71 %29.85 in10.0 miENE (70°)11.5 mphOvercast
2:53 PM43.0 °F35.1 °F74 %29.81 in10.0 miENE (70°)11.5 mphOvercast
3:53 PM42.1 °F35.1 °F76 %29.78 in9.0 miENE (60°)9.2 mphOvercast
4:11 PM42.8 °F35.6 °F76 %29.76 in9.0 miEast (80°)10.4 mphOvercast
4:53 PM41.0 °F36.0 °F82 %29.75 in9.0 miEast (90°)9.2 mphOvercast
5:53 PM39.9 °F36.0 °F86 %29.74 in10.0 miESE (110°)9.2 mphOvercast
6:53 PM39.0 °F35.1 °F86 %29.73 in10.0 miEast (80°)9.2 mphOvercast
7:53 PM37.9 °F35.1 °F89 %29.73 in10.0 miESE (120°)10.4 mphOvercast
8:53 PM37.9 °F36.0 °F93 %29.76 in9.0 miEast (80°)3.5 mphOvercast
9:53 PM37.9 °F36.0 °F93 %29.75 in6.0 miSE (130°)8.1 mphOvercast
10:53 PM37.9 °F36.0 °F93 %29.75 in7.0 miSE (130°)9.2 mphOvercast
11:53 PM37.9 °F36.0 °F93 %29.77 in10.0 miSSE (160°)3.5 mph0.00 inOvercast
Hourly data recorded from KICT, located miles away from Wichita, Kansas







STORIES FROM OUR PARTNERS